Regional Weather Roundup
Issued by NWS

Home | Current Version | Previous Version | Graphics & Text | Print | Product List | Glossary On
Versions: 1 2 3 4 5 6 7 8 9 10 11 12 13 14 15 16 17 18 19 20 21 22 23 24 25 26 27 28 29 30 31 32 33 34 35 36 37 38 39 40 41 42 43 44 45 46 47 48 49 50
000
ASUS43 KFSD 121902
RWRSD

WEATHER ROUNDUP FOR SOUTH DAKOTA
NATIONAL WEATHER SERVICE SIOUX FALLS SD
200 PM CDT SAT JUL 12 2014

NOTE: "FAIR" INDICATES FEW OR NO CLOUDS BELOW 12,000 FEET WITH NO
SIGNIFICANT WEATHER AND/OR OBSTRUCTIONS TO VISIBILITY.


SDZ001>005-009-010-012>017-122000-
NORTHWEST AND NORTH CENTRAL SOUTH DAKOTA

CITY           SKY/WX    TMP DP  RH WIND       PRES   REMARKS
BUFFALO          N/A     78  62  57 VRB5      30.10F
FAITH            N/A     76  63  64 SW7       30.14S
MOBRIDGE       PTSUNNY   75  63  66 VRB5      30.09R
$$

SDZ012>016-024>037-041>051-057-063-072>074-122000-
SOUTHWEST AND SOUTH CENTRAL SOUTH DAKOTA

CITY           SKY/WX    TMP DP  RH WIND       PRES   REMARKS
RAPID CTY ARPT MOSUNNY   74  65  73 S8        30.17S
PIERRE         PTSUNNY   77  62  59 N6        30.09S
CUSTER         CLOUDY    69  59  70 VRB3      30.29R
PHILIP         MOSUNNY   81  61  50 VRB6      30.11F
PINE RIDGE     MOSUNNY   77  61  57 S3        30.18S
WINNER         MOCLDY    81  66  60 VRB3      30.08F
$$

SDZ004>011-016>023-039-040-122000-
NORTHEAST SOUTH DAKOTA

CITY           SKY/WX    TMP DP  RH WIND       PRES   REMARKS
ABERDEEN       MOSUNNY   75  61  61 VRB6      30.06S
WATERTOWN      CLOUDY    68  64  87 SE7       30.03F
SISSETON         N/A     73  64  73 S5        30.01F
$$

SDZ017-020-022-023-036>040-048>070-122000-
SOUTHEAST SOUTH DAKOTA

CITY           SKY/WX    TMP DP  RH WIND       PRES   REMARKS
SIOUX FALLS    MOSUNNY   78  64  61 NE7       30.04F
HURON          CLOUDY    73  65  75 SE5       30.04F
CHAMBERLAIN    MOSUNNY   76  65  69 CALM      30.07F
MITCHELL       PTSUNNY   77  66  68 NE10      30.05S
YANKTON          N/A     72  66  83 N6        30.04S
$$

ABBREVIATIONS USED IN REMARKS
   TC - TEMPERATURE IN CELSIUS
  WCI - WIND CHILL INDEX
   HX - HEAT INDEX
  VSB - VISIBILITY




USA.gov is the U.S. government's official web portal to all federal, state and local government web resources and services.